When you browse on this site, cookies collect data to enhance your experience and personalize the content and advertising you see.
Visit our Privacy Policy to learn more. By continuing to use the site, you agree to this use of cookies and data.
  • Em Portugal
  • Lista de países
  • Para 7 dias
  • Temperatura da água
  • Mapas de satélite
  • Mapa do tempo
  • Widgets de tempo
  • user-avatar
    Iniciar Sessão

    Previsão horária em Omagh

    Hoje, 18 Julho, Quinta-feira

    Tempo Temperatura Precipitação Vento Pressão Humidade
    00:00 +10°C° 0 mm 2 m/s 748 mmHg 98%
    01:00 +12°C° 0 mm 2 m/s 748 mmHg 97%
    02:00 +12°C° 0 mm 2 m/s 748 mmHg 97%
    03:00 +12°C° 0 mm 2 m/s 748 mmHg 96%
    04:00 +12°C° 0 mm 2 m/s 748 mmHg 96%
    05:00 +12°C° 0 mm 2 m/s 748 mmHg 95%
    06:00 +13°C° 0 mm 2 m/s 748 mmHg 95%
    07:00 +13°C° 0.2 mm 3 m/s 748 mmHg 92%
    08:00 +14°C° 0.2 mm 4 m/s 748 mmHg 90%
    09:00 +15°C° 0.2 mm 4 m/s 748 mmHg 88%
    10:00 +15°C° 0.5 mm 5 m/s 748 mmHg 85%
    11:00 +16°C° 0.5 mm 5 m/s 748 mmHg 82%
    12:00 +17°C° 0.5 mm 5 m/s 748 mmHg 80%
    13:00 +17°C° 0.6 mm 5 m/s 748 mmHg 80%
    14:00 +17°C° 0.6 mm 5 m/s 748 mmHg 79%
    15:00 +17°C° 0.6 mm 5 m/s 748 mmHg 79%
    16:00 +17°C° 0.3 mm 5 m/s 748 mmHg 80%
    17:00 +17°C° 0.3 mm 4 m/s 748 mmHg 80%
    18:00 +17°C° 0.3 mm 4 m/s 748 mmHg 81%
    19:00 +16°C° 0 mm 3 m/s 748 mmHg 85%
    20:00 +14°C° 0 mm 2 m/s 749 mmHg 90%
    21:00 +13°C° 0 mm 2 m/s 749 mmHg 94%
    22:00 +13°C° 0 mm 2 m/s 749 mmHg 95%
    23:00 +12°C° 0 mm 1 m/s 749 mmHg 96%

    Amanhã, 19 Julho, Sexta-feira

    Tempo Temperatura Precipitação Vento Pressão Humidade
    00:00 +11°C° 0 mm 1 m/s 749 mmHg 98%
    01:00 +11°C° 0 mm 1 m/s 748 mmHg 97%
    02:00 +11°C° 0 mm 1 m/s 748 mmHg 97%
    03:00 +11°C° 0 mm 1 m/s 748 mmHg 97%
    04:00 +11°C° 0 mm 1 m/s 747 mmHg 96%
    05:00 +11°C° 0 mm 1 m/s 747 mmHg 96%
    06:00 +12°C° 0 mm 1 m/s 747 mmHg 95%
    07:00 +12°C° 0.3 mm 1 m/s 746 mmHg 94%
    08:00 +13°C° 0.3 mm 1 m/s 746 mmHg 93%
    09:00 +13°C° 0.3 mm 2 m/s 746 mmHg 92%
    10:00 +13°C° 1.3 mm 2 m/s 745 mmHg 93%
    11:00 +13°C° 1.3 mm 2 m/s 745 mmHg 94%
    12:00 +13°C° 1.3 mm 2 m/s 745 mmHg 96%
    13:00 +14°C° 0.2 mm 2 m/s 744 mmHg 94%
    14:00 +15°C° 0.2 mm 1 m/s 744 mmHg 93%
    15:00 +16°C° 0.2 mm 1 m/s 744 mmHg 92%
    16:00 +16°C° 0 mm 1 m/s 744 mmHg 90%
    17:00 +16°C° 0 mm 1 m/s 744 mmHg 87%
    18:00 +18°C° 0 mm 1 m/s 744 mmHg 85%
    19:00 +16°C° 0.2 mm 1 m/s 744 mmHg 89%
    20:00 +15°C° 0.2 mm 1 m/s 744 mmHg 93%
    21:00 +13°C° 0.2 mm 0 m/s 744 mmHg 97%
    22:00 +13°C° 0.2 mm 0 m/s 744 mmHg 97%
    23:00 +13°C° 0.2 mm 0 m/s 744 mmHg 97%

    Depois de amanhã, 20 Julho, Sábado

    Tempo Temperatura Precipitação Vento Pressão Humidade
    00:00 +14°C° 0.2 mm 1 m/s 744 mmHg 98%
    01:00 +14°C° 0.2 mm 1 m/s 745 mmHg 98%
    02:00 +13°C° 0.2 mm 1 m/s 745 mmHg 98%
    03:00 +13°C° 0.2 mm 1 m/s 745 mmHg 98%
    04:00 +13°C° 0 mm 1 m/s 745 mmHg 98%
    05:00 +13°C° 0 mm 1 m/s 745 mmHg 97%
    06:00 +13°C° 0 mm 1 m/s 746 mmHg 97%
    07:00 +14°C° 0 mm 1 m/s 746 mmHg 91%
    08:00 +15°C° 0 mm 2 m/s 747 mmHg 85%
    09:00 +16°C° 0 mm 2 m/s 747 mmHg 80%
    10:00 +17°C° 0.1 mm 2 m/s 748 mmHg 74%
    11:00 +18°C° 0.1 mm 3 m/s 749 mmHg 68%
    12:00 +19°C° 0.1 mm 3 m/s 749 mmHg 63%
    13:00 +19°C° 0 mm 3 m/s 749 mmHg 63%
    14:00 +19°C° 0 mm 3 m/s 750 mmHg 64%
    15:00 +19°C° 0 mm 3 m/s 750 mmHg 64%
    16:00 +19°C° 0 mm 3 m/s 751 mmHg 65%
    17:00 +18°C° 0 mm 3 m/s 751 mmHg 66%
    18:00 +18°C° 0 mm 3 m/s 751 mmHg 67%
    19:00 +16°C° 0 mm 2 m/s 752 mmHg 74%
    20:00 +15°C° 0 mm 2 m/s 752 mmHg 80%
    21:00 +13°C° 0 mm 1 m/s 753 mmHg 87%
    22:00 +12°C° 0 mm 1 m/s 753 mmHg 88%
    23:00 +12°C° 0 mm 1 m/s 753 mmHg 90%

    21 Julho, Domingo

    Tempo Temperatura Precipitação Vento Pressão Humidade
    00:00 +11°C° 0 mm 1 m/s 753 mmHg 92%
    01:00 +11°C° 0 mm 1 m/s 753 mmHg 93%
    02:00 +11°C° 0 mm 1 m/s 753 mmHg 94%
    03:00 +11°C° 0 mm 1 m/s 753 mmHg 94%
    04:00 +10°C° 0 mm 2 m/s 753 mmHg 94%
    05:00 +12°C° 0 mm 2 m/s 753 mmHg 94%
    06:00 +13°C° 0 mm 2 m/s 753 mmHg 93%
    07:00 +12°C° 0.6 mm 3 m/s 753 mmHg 94%
    08:00 +12°C° 0.6 mm 3 m/s 753 mmHg 96%
    09:00 +12°C° 0.6 mm 4 m/s 753 mmHg 97%
    10:00 +13°C° 0.1 mm 4 m/s 753 mmHg 96%
    11:00 +14°C° 0.1 mm 5 m/s 753 mmHg 94%
    12:00 +15°C° 0.1 mm 5 m/s 753 mmHg 93%
    13:00 +16°C° 0.3 mm 5 m/s 753 mmHg 93%
    14:00 +17°C° 0.3 mm 5 m/s 753 mmHg 93%
    15:00 +17°C° 0.3 mm 5 m/s 753 mmHg 93%
    16:00 +18°C° 0.9 mm 4 m/s 753 mmHg 94%
    17:00 +18°C° 0.9 mm 3 m/s 752 mmHg 94%
    18:00 +18°C° 0.9 mm 2 m/s 752 mmHg 95%
    19:00 +18°C° 0.7 mm 3 m/s 752 mmHg 95%
    20:00 +17°C° 0.7 mm 4 m/s 752 mmHg 96%
    21:00 +16°C° 0.7 mm 5 m/s 752 mmHg 96%
    22:00 +16°C° 1.2 mm 5 m/s 751 mmHg 96%
    23:00 +16°C° 1.2 mm 5 m/s 751 mmHg 96%

    22 Julho, Segunda-feira

    Tempo Temperatura Precipitação Vento Pressão Humidade
    00:00 +16°C° 1.2 mm 5 m/s 751 mmHg 96%
    01:00 +16°C° 0.1 mm 5 m/s 751 mmHg 96%
    02:00 +17°C° 0.1 mm 5 m/s 750 mmHg 95%
    03:00 +17°C° 0.1 mm 5 m/s 750 mmHg 94%
    04:00 +17°C° 0 mm 5 m/s 751 mmHg 94%
    05:00 +17°C° 0 mm 5 m/s 751 mmHg 93%
    06:00 +18°C° 0 mm 4 m/s 751 mmHg 92%
    07:00 +19°C° 0 mm 5 m/s 751 mmHg 88%
    08:00 +20°C° 0 mm 5 m/s 752 mmHg 85%
    09:00 +21°C° 0 mm 6 m/s 752 mmHg 81%
    10:00 +22°C° 0 mm 6 m/s 752 mmHg 76%
    11:00 +23°C° 0 mm 6 m/s 753 mmHg 71%
    12:00 +24°C° 0 mm 6 m/s 753 mmHg 67%
    13:00 +24°C° 0 mm 6 m/s 753 mmHg 67%
    14:00 +26°C° 0 mm 6 m/s 753 mmHg 67%
    15:00 +26°C° 0 mm 6 m/s 753 mmHg 66%
    16:00 +24°C° 0 mm 6 m/s 753 mmHg 70%
    17:00 +23°C° 0 mm 6 m/s 753 mmHg 74%
    18:00 +22°C° 0 mm 6 m/s 753 mmHg 78%
    19:00 +21°C° 0 mm 5 m/s 753 mmHg 81%
    20:00 +20°C° 0 mm 5 m/s 753 mmHg 83%
    21:00 +19°C° 0 mm 4 m/s 753 mmHg 86%
    22:00 +18°C° 0 mm 4 m/s 753 mmHg 87%
    23:00 +18°C° 0 mm 4 m/s 754 mmHg 89%

    23 Julho, Terça-feira

    Tempo Temperatura Precipitação Vento Pressão Humidade
    00:00 +18°C° 0 mm 4 m/s 754 mmHg 90%
    01:00 +17°C° 0 mm 4 m/s 753 mmHg 91%
    02:00 +17°C° 0 mm 4 m/s 753 mmHg 91%
    03:00 +17°C° 0 mm 4 m/s 753 mmHg 91%
    04:00 +17°C° 0 mm 4 m/s 753 mmHg 91%
    05:00 +17°C° 0 mm 4 m/s 753 mmHg 90%
    06:00 +17°C° 0 mm 4 m/s 752 mmHg 89%
    07:00 +18°C° 0 mm 4 m/s 752 mmHg 84%
    08:00 +19°C° 0 mm 5 m/s 752 mmHg 80%
    09:00 +20°C° 0 mm 5 m/s 752 mmHg 75%
    10:00 +21°C° 0 mm 5 m/s 752 mmHg 72%
    11:00 +22°C° 0 mm 5 m/s 752 mmHg 69%
    12:00 +23°C° 0 mm 5 m/s 752 mmHg 66%
    13:00 +25°C° 0 mm 5 m/s 752 mmHg 66%
    14:00 +25°C° 0 mm 5 m/s 752 mmHg 66%
    15:00 +25°C° 0 mm 5 m/s 751 mmHg 66%
    16:00 +25°C° 0 mm 4 m/s 751 mmHg 70%
    17:00 +25°C° 0 mm 4 m/s 751 mmHg 73%
    18:00 +23°C° 0 mm 4 m/s 751 mmHg 77%
    19:00 +21°C° 0 mm 3 m/s 751 mmHg 83%
    20:00 +20°C° 0 mm 2 m/s 750 mmHg 89%
    21:00 +19°C° 0 mm 1 m/s 750 mmHg 95%
    22:00 +19°C° 0 mm 1 m/s 750 mmHg 96%
    23:00 +18°C° 0 mm 1 m/s 750 mmHg 96%
    Mostrar mais